[TLELIST] Archives

 

Current TLEs

July 6th 2007 PDT

HST 1 20580U 90037B 07185.96971040 +.00000259 +00000-0 +72073-5 0 09227 2 20580 028.4681 074.1658 0003630 278.0038 082.0140 15.00256368742630 ISS (ZARYA) 1 25544U 98067A 07187.50058645 .00018403 00000-0 10605-3 0 5285 2 25544 051.6367 004.0716 0008501 039.5993 056.4659 15.78722367493829 CXO 1 25867U 99040B 07186.16666667 .00000398 00000-0 00000+0 0 862 2 25867 061.9615 088.9463 6259889 283.7615 358.2512 00.37807559 2322 ____________________________________________________________________ These 2-Line ...Continue Reading

Current TLEs

July 5th 2007 PDT

HST 1 20580U 90037B 07186.10275887 .00000328 00000-0 12609-4 0 9102 2 20580 028.4678 073.2955 0003535 281.1616 078.8575 15.00256871742653 ISS (ZARYA) 1 25544U 98067A 07186.35683872 .00015382 00000-0 89513-4 0 5214 2 25544 051.6363 009.9848 0008601 036.6139 034.7436 15.78669412493649 CXO 1 25867U 99040B 07186.16666667 .00000398 00000-0 00000+0 0 862 2 25867 061.9615 088.9463 6259889 283.7615 358.2512 00.37807559 2322 ____________________________________________________________________ These 2-Line ...Continue Reading

Current TLEs

July 4th 2007 PDT

HST 1 20580U 90037B 07183.97397564 +.00000287 +00000-0 +93819-5 0 09096 2 20580 028.4679 087.1800 0003670 257.9353 102.0820 15.00256035742336 ISS (ZARYA) 1 25544U 98067A 07184.84816878 .00016148 00000-0 93961-4 0 5134 2 25544 051.6347 017.7861 0008593 030.7663 100.8349 15.78623805493408 CXO 1 25867U 99040B 07186.16666667 .00000398 00000-0 00000+0 0 862 2 25867 061.9615 088.9463 6259889 283.7615 358.2512 00.37807559 2322 ____________________________________________________________________ These 2-Line ...Continue Reading

Current TLEs

July 3rd 2007 PDT

PUBLIC "-//W3C//DTD XHTML 1.0 Transitional//EN" "http://www.w3.org/TR/xhtml1/DTD/xhtml1-transitional.dtd"> ____________________________________________________________________ These 2-Line Elements (TLEs) are direct from DoD/ USSTRATCOM/ US Space Command with permission. Updates are provided automatically daily. By receiving this email, you agree not to transfer any data or information received under this agreement, including the analysis of tracking data, to any other entity without the ...Continue Reading

Current TLEs

July 2nd 2007 PDT

HST 1 20580U 90037B 07181.97824128 +.00000288 +00000-0 +94450-5 0 09199 2 20580 028.4680 100.1939 0003777 237.3901 122.6323 15.00255472742033 ISS (ZARYA) 1 25544U 98067A 07183.13310343 .00016994 00000-0 98906-4 0 5044 2 25544 051.6365 026.6583 0008678 024.1472 074.2350 15.78569079493135 CXO 1 25867U 99040B 07180.87500000 .00000361 00000-0 00000+0 0 851 2 25867 061.9344 089.0621 6249292 283.8075 357.9086 00.37804113 2300 ____________________________________________________________________ These 2-Line ...Continue Reading

Current TLEs

July 1st 2007 PDT

HST 1 20580U 90037B 07182.17781458 .00000315 00000-0 11579-4 0 9078 2 20580 028.4679 098.8911 0003696 238.8870 121.1359 15.00255741742060 ISS (ZARYA) 1 25544U 98067A 07182.06371962 .00016256 00000-0 94965-4 0 4983 2 25544 051.6345 032.1850 0008468 019.8953 117.2977 15.78528761492960 CXO 1 25867U 99040B 07180.87500000 .00000361 00000-0 00000+0 0 851 2 25867 061.9344 089.0621 6249292 283.8075 357.9086 00.37804113 2300 ____________________________________________________________________ These 2-Line ...Continue Reading

Current TLEs

June 30th 2007 PDT

PUBLIC "-//W3C//DTD XHTML 1.0 Transitional//EN" "http://www.w3.org/TR/xhtml1/DTD/xhtml1-transitional.dtd"> ____________________________________________________________________ These 2-Line Elements (TLEs) are direct from DoD/ USSTRATCOM/ US Space Command with permission. Updates are provided automatically daily. By receiving this email, you agree not to transfer any data or information received under this agreement, including the analysis of tracking data, to any other entity without the ...Continue Reading

Current TLEs

June 29th 2007 PDT

HST 1 20580U 90037B 07178.25287105 +.00000291 +00000-0 +96635-5 0 09061 2 20580 028.4678 124.4861 0003773 200.0918 159.9523 15.00254383741476 ISS (ZARYA) 1 25544U 98067A 07180.10120244 .00014479 00000-0 85302-4 0 4857 2 25544 051.6346 042.3306 0008271 013.3754 124.0930 15.78458270492658 CXO 1 25867U 99040B 07180.87500000 .00000361 00000-0 00000+0 0 851 2 25867 061.9344 089.0621 6249292 283.8075 357.9086 00.37804113 2300 ____________________________________________________________________ These 2-Line ...Continue Reading

Current TLEs

June 28th 2007 PDT

HST 1 20580U 90037B 07179.25073811 .00000321 00000-0 12054-4 0 9054 2 20580 028.4678 117.9798 0003744 209.8193 150.2185 15.00254893741623 ISS (ZARYA) 1 25544U 98067A 07179.45459622 .00014280 00000-0 84263-4 0 4819 2 25544 051.6330 045.6765 0008187 010.9676 049.7228 15.78437722492559 CXO 1 25867U 99040B 07178.20833333 .00000344 00000-0 00000+0 0 843 2 25867 061.9226 089.1078 6243395 283.8638 354.8466 00.37804061 2297 ____________________________________________________________________ These 2-Line ...Continue Reading

Current TLEs

June 27th 2007 PDT

HST 1 20580U 90037B 07176.92238080 +.00000262 +00000-0 +74146-5 0 09040 2 20580 028.4680 133.1631 0003961 189.0692 170.9834 15.00253883741275 ISS (ZARYA) 1 25544U 98067A 07178.00149319 .00015789 00000-0 92906-4 0 4726 2 25544 051.6337 053.1819 0007925 006.5501 071.6011 15.78399690492327 CXO 1 25867U 99040B 07178.20833333 .00000344 00000-0 00000+0 0 843 2 25867 061.9226 089.1078 6243395 283.8638 354.8466 00.37804061 2297 ____________________________________________________________________ These 2-Line ...Continue Reading
  • This mailing list is a public mailing list - anyone may join or leave, at any time.
  • This mailing list is announce-only.

International Space Station (ISS) / Hubble Space Telescope (HST) / Chandra X-Ray Observatory Orbital Data via EMAIL

Privacy Policy:

Private list